TimeEST,TemperatureF,Dew PointF,Humidity,Sea Level PressureIn,VisibilityMPH,Wind Direction,Wind SpeedMPH,Gust SpeedMPH,PrecipitationIn,Events,Conditions,WindDirDegrees,DateUTC
12:24 AM,30.2,23.0,75,30.13,9.0,SW,10.4,-,N/A,,Overcast,220,2013-01-04 05:24:00
12:53 AM,30.9,21.9,69,30.16,8.0,SW,12.7,-,N/A,,Overcast,230,2013-01-04 05:53:00
1:53 AM,30.0,21.9,72,30.14,8.0,SW,13.8,-,N/A,,Overcast,230,2013-01-04 06:53:00
2:53 AM,30.0,21.9,72,30.14,7.0,SW,11.5,-,N/A,,Overcast,220,2013-01-04 07:53:00
3:53 AM,30.0,21.0,69,30.12,8.0,SW,12.7,-,N/A,,Overcast,230,2013-01-04 08:53:00
4:53 AM,30.0,21.0,69,30.12,10.0,WSW,17.3,-,N/A,,Overcast,240,2013-01-04 09:53:00
5:53 AM,30.0,19.9,66,30.11,10.0,SW,13.8,26.5,N/A,,Overcast,230,2013-01-04 10:53:00
6:53 AM,28.0,19.0,69,30.11,10.0,WSW,20.7,28.8,N/A,,Mostly Cloudy,250,2013-01-04 11:53:00
7:06 AM,28.4,17.6,64,30.09,10.0,WSW,13.8,24.2,N/A,,Partly Cloudy,240,2013-01-04 12:06:00
7:53 AM,25.0,17.1,72,30.12,10.0,SW,11.5,-,N/A,,Clear,220,2013-01-04 12:53:00
8:53 AM,24.1,15.1,69,30.12,9.0,SW,13.8,-,N/A,,Clear,230,2013-01-04 13:53:00
9:53 AM,25.0,15.1,66,30.12,10.0,WSW,19.6,-,N/A,,Clear,240,2013-01-04 14:53:00
10:53 AM,26.1,15.1,63,30.12,10.0,WSW,20.7,-,N/A,,Clear,240,2013-01-04 15:53:00
11:53 AM,28.0,17.1,63,30.11,10.0,WSW,12.7,-,N/A,,Clear,250,2013-01-04 16:53:00
12:53 PM,28.0,17.1,63,30.08,10.0,SW,20.7,-,N/A,,Clear,230,2013-01-04 17:53:00
1:53 PM,30.0,18.0,61,30.06,10.0,SW,20.7,26.5,N/A,,Clear,230,2013-01-04 18:53:00
2:53 PM,30.0,18.0,61,30.06,10.0,SW,18.4,-,N/A,,Clear,220,2013-01-04 19:53:00
3:53 PM,30.9,18.0,59,30.06,10.0,WSW,19.6,-,N/A,,Clear,240,2013-01-04 20:53:00
4:53 PM,30.0,17.1,59,30.08,10.0,WSW,25.3,29.9,N/A,,Clear,250,2013-01-04 21:53:00
5:53 PM,28.9,16.0,58,30.10,10.0,WSW,13.8,26.5,N/A,,Clear,240,2013-01-04 22:53:00
6:53 PM,28.0,17.1,63,30.13,10.0,WSW,17.3,-,N/A,,Clear,250,2013-01-04 23:53:00
7:53 PM,27.0,17.1,66,30.15,10.0,WSW,17.3,-,N/A,,Clear,240,2013-01-05 00:53:00
8:53 PM,26.1,17.1,69,30.16,10.0,WSW,13.8,-,N/A,,Clear,240,2013-01-05 01:53:00
9:53 PM,25.0,17.1,72,30.17,10.0,WSW,11.5,-,N/A,,Clear,240,2013-01-05 02:53:00
10:53 PM,23.0,16.0,74,30.19,9.0,WSW,9.2,-,N/A,,Clear,240,2013-01-05 03:53:00
11:53 PM,24.1,17.1,75,30.21,9.0,SW,11.5,-,N/A,,Clear,230,2013-01-05 04:53:00